{"data":{"norad_id":65072,"epoch":"2026-09-20T22:00:03.000096Z","epoch_age_seconds":84163,"freshness":"FRESH","line1":"1 65072U 25165S   26263.91670139 -.00029909  00000+0 -92763-3 0  9994","line2":"2 65072  97.2851 335.0637 0002157  86.1240 309.6420 15.33448097  5291","mean_motion":15.33448097,"eccentricity":0.0002157,"inclination_deg":97.2851,"raan_deg":335.0637,"arg_perigee_deg":86.124,"mean_anomaly_deg":309.642,"bstar":-0.00092763,"rev_number":529,"period_min":93.906015000911,"perigee_km":464.05778017449,"apogee_km":467.01013982664,"semimajor_km":6843.6709600006,"source":"CELESTRAK","updated_at":"2026-09-21T09:00:35.501375Z"}}